GFSFLT2_prec_precacc24_123.txt.gz
Total_Precipitation_Accumulation
0.00 0.00 0.00 0.00 0.00 0.00 0.00 0.00 0.00 0.00 0.00 0.00 0.00 0.00 0.00 0.00 0.00 0.01 0.05 0.05 0.05 0.05 0.07 0.02 0.00 0.00 0.00 0.00 0.00 0.00 0.04 0.18
0.00 0.00 0.00 0.00 0.00 0.00 0.00 0.00 0.00 0.00 0.00 0.00 0.00 0.00 0.00 0.00 0.00 0.00 0.02 0.03 0.02 0.08 0.09 0.05 0.00 0.00 0.00 0.00 0.03 0.05 0.02 0.09
0.00 0.01 0.00 0.00 0.00 0.00 0.00 0.00 0.00 0.00 0.00 0.00 0.00 0.00 0.00 0.00 0.00 0.00 0.02 0.02 0.03 0.06 0.10 0.06 0.01 0.05 0.12 0.08 0.12 0.03 0.02 0.06
0.00 0.01 0.02 0.01 0.00 0.00 0.00 0.00 0.00 0.00 0.00 0.00 0.00 0.00 0.00 0.00 0.00 0.00 0.00 0.00 0.01 0.03 0.07 0.07 0.15 0.09 0.07 0.06 0.03 0.04 0.17 0.15
0.01 0.03 0.02 0.03 0.02 0.02 0.00 0.00 0.00 0.00 0.00 0.00 0.00 0.01 0.01 0.00 0.00 0.01 0.01 0.00 0.01 0.01 0.03 0.06 0.05 0.06 0.12 0.02 0.03 0.08 0.11 0.04
0.06 0.11 0.08 0.04 0.06 0.03 0.03 0.02 0.00 0.00 0.00 0.01 0.02 0.03 0.04 0.05 0.03 0.01 0.01 0.01 0.01 0.02 0.01 0.04 0.04 0.06 0.11 0.14 0.12 0.09 0.02 0.05
0.04 0.07 0.12 0.17 0.25 0.22 0.17 0.11 0.09 0.01 0.05 0.02 0.03 0.04 0.08 0.09 0.05 0.04 0.05 0.01 0.01 0.02 0.02 0.03 0.06 0.08 0.10 0.09 0.09 0.06 0.10 0.15
0.00 0.00 0.02 0.06 0.10 0.20 0.26 0.32 0.37 0.20 0.21 0.13 0.05 0.05 0.08 0.06 0.04 0.04 0.06 0.06 0.13 0.05 0.02 0.05 0.09 0.10 0.09 0.07 0.09 0.09 0.10 0.11
0.00 0.00 0.02 0.03 0.03 0.06 0.14 0.20 0.30 0.31 0.38 0.51 0.45 0.32 0.16 0.13 0.11 0.05 0.05 0.11 0.28 0.12 0.10 0.12 0.08 0.08 0.04 0.05 0.06 0.07 0.06 0.07
0.00 0.00 0.00 0.00 0.01 0.02 0.03 0.08 0.13 0.23 0.27 0.45 0.55 0.53 0.49 0.63 0.49 0.33 0.20 0.43 0.49 0.21 0.17 0.20 0.14 0.10 0.07 0.06 0.08 0.14 0.11 0.11
0.00 0.00 0.00 0.00 0.00 0.00 0.01 0.02 0.02 0.04 0.06 0.16 0.41 0.36 0.49 0.52 0.56 0.69 0.73 0.77 0.70 0.65 0.58 0.32 0.21 0.13 0.15 0.11 0.12 0.19 0.17 0.19
0.00 0.00 0.00 0.00 0.00 0.00 0.00 0.00 0.01 0.00 0.00 0.01 0.05 0.17 0.09 0.17 0.22 0.37 0.71 0.88 0.96 1.10 1.02 0.70 0.57 0.52 0.52 0.39 0.31 0.31 0.24 0.24
0.00 0.00 0.00 0.00 0.00 0.00 0.00 0.00 0.00 0.00 0.00 0.00 0.01 0.18 0.13 0.02 0.03 0.09 0.23 0.27 0.31 0.65 0.94 0.93 0.87 1.17 1.71 1.65 1.02 0.60 0.45 0.32
0.00 0.00 0.00 0.00 0.00 0.00 0.00 0.00 0.00 0.00 0.01 0.00 0.00 0.05 0.17 0.10 0.07 0.07 0.11 0.23 0.35 0.34 0.65 0.76 0.71 0.89 1.14 1.14 0.94 0.54 0.36 0.36
0.00 0.00 0.00 0.00 0.00 0.00 0.00 0.00 0.01 0.01 0.02 0.01 0.01 0.04 0.09 0.10 0.09 0.16 0.35 0.75 0.92 1.03 1.13 1.21 0.97 0.91 0.99 1.11 0.90 0.73 0.69 0.62
0.00 0.00 0.00 0.00 0.00 0.00 0.00 0.00 0.00 0.00 0.00 0.00 0.01 0.05 0.12 0.13 0.15 0.29 0.32 0.43 0.50 0.64 0.78 0.93 1.12 1.18 1.31 1.42 1.23 1.00 0.69 0.48
0.01 0.02 0.03 0.04 0.04 0.02 0.02 0.01 0.00 0.00 0.00 0.01 0.01 0.02 0.05 0.10 0.17 0.31 0.40 0.41 0.33 0.30 0.21 0.17 0.16 0.26 0.24 0.24 0.38 0.34 0.27 0.20
0.00 0.01 0.01 0.02 0.03 0.05 0.04 0.03 0.01 0.01 0.00 0.01 0.05 0.08 0.11 0.17 0.39 0.31 0.33 0.47 0.44 0.52 0.56 0.41 0.26 0.16 0.13 0.09 0.09 0.07 0.05 0.05
0.07 0.05 0.02 0.01 0.00 0.01 0.02 0.02 0.01 0.01 0.01 0.03 0.10 0.24 0.29 0.30 0.42 0.36 0.28 0.34 0.34 0.34 0.50 0.76 0.82 0.46 0.31 0.23 0.16 0.13 0.15 0.14
0.04 0.06 0.06 0.04 0.03 0.02 0.02 0.02 0.04 0.03 0.03 0.06 0.09 0.08 0.09 0.26 0.62 0.57 0.46 0.40 0.43 0.56 0.60 0.65 0.87 1.02 0.48 0.31 0.22 0.16 0.23 0.20

GFSFLT2_prec_precacc24_126.txt.gz
Total_Precipitation_Accumulation
0.00 0.00 0.00 0.00 0.00 0.00 0.00 0.00 0.00 0.00 0.00 0.00 0.00 0.00 0.00 0.00 0.00 0.00 0.02 0.02 0.03 0.04 0.04 0.01 0.00 0.00 0.00 0.00 0.00 0.00 0.04 0.16
0.00 0.00 0.00 0.00 0.00 0.00 0.00 0.00 0.00 0.00 0.00 0.00 0.00 0.00 0.00 0.00 0.00 0.00 0.01 0.01 0.02 0.04 0.05 0.03 0.00 0.00 0.00 0.00 0.03 0.05 0.01 0.07
0.00 0.01 0.00 0.00 0.00 0.00 0.00 0.00 0.00 0.00 0.00 0.00 0.00 0.00 0.00 0.00 0.00 0.00 0.02 0.01 0.02 0.04 0.05 0.03 0.01 0.00 0.02 0.03 0.10 0.02 0.01 0.03
0.00 0.01 0.02 0.01 0.00 0.00 0.00 0.00 0.00 0.00 0.00 0.00 0.00 0.00 0.00 0.00 0.00 0.00 0.00 0.00 0.00 0.02 0.03 0.03 0.05 0.02 0.03 0.01 0.02 0.01 0.12 0.13
0.01 0.03 0.02 0.03 0.02 0.02 0.00 0.00 0.00 0.00 0.00 0.00 0.00 0.01 0.01 0.00 0.01 0.01 0.00 0.00 0.00 0.00 0.03 0.07 0.05 0.02 0.07 0.02 0.00 0.05 0.09 0.03
0.06 0.11 0.08 0.04 0.06 0.03 0.03 0.02 0.00 0.00 0.00 0.01 0.03 0.05 0.06 0.07 0.04 0.01 0.01 0.02 0.02 0.04 0.06 0.05 0.06 0.06 0.06 0.09 0.08 0.08 0.02 0.05
0.04 0.07 0.13 0.18 0.25 0.23 0.18 0.11 0.10 0.01 0.05 0.02 0.04 0.05 0.11 0.12 0.06 0.05 0.07 0.04 0.02 0.03 0.06 0.10 0.10 0.10 0.10 0.09 0.08 0.06 0.09 0.14
0.00 0.00 0.02 0.06 0.11 0.22 0.29 0.35 0.38 0.20 0.23 0.14 0.06 0.06 0.08 0.08 0.08 0.06 0.08 0.10 0.21 0.11 0.04 0.08 0.12 0.10 0.08 0.08 0.09 0.08 0.10 0.11
0.00 0.00 0.02 0.03 0.04 0.06 0.15 0.21 0.31 0.32 0.41 0.56 0.49 0.34 0.18 0.16 0.12 0.06 0.07 0.15 0.32 0.16 0.14 0.18 0.12 0.11 0.05 0.05 0.06 0.08 0.09 0.07
0.00 0.00 0.00 0.00 0.01 0.02 0.03 0.08 0.13 0.24 0.29 0.47 0.57 0.54 0.50 0.64 0.51 0.36 0.25 0.51 0.57 0.31 0.23 0.25 0.19 0.12 0.09 0.09 0.09 0.12 0.10 0.10
0.00 0.00 0.00 0.00 0.00 0.00 0.01 0.01 0.02 0.04 0.06 0.16 0.41 0.37 0.50 0.52 0.57 0.70 0.75 0.81 0.72 0.67 0.66 0.43 0.28 0.15 0.18 0.14 0.12 0.17 0.16 0.18
0.00 0.00 0.00 0.00 0.00 0.00 0.00 0.00 0.00 0.00 0.00 0.01 0.05 0.17 0.09 0.17 0.22 0.37 0.71 0.88 0.96 1.11 1.03 0.75 0.64 0.67 0.78 0.64 0.55 0.49 0.39 0.33
0.00 0.00 0.00 0.00 0.00 0.00 0.00 0.00 0.00 0.00 0.00 0.00 0.01 0.18 0.13 0.02 0.03 0.09 0.23 0.27 0.31 0.65 0.94 0.94 0.88 1.22 1.90 1.86 1.30 0.99 1.04 1.15
0.00 0.00 0.00 0.00 0.00 0.00 0.00 0.00 0.00 0.00 0.00 0.00 0.00 0.05 0.16 0.10 0.07 0.07 0.11 0.23 0.34 0.33 0.64 0.76 0.71 0.91 1.20 1.27 1.21 0.81 0.51 0.38
0.00 0.00 0.00 0.00 0.00 0.00 0.00 0.00 0.00 0.00 0.00 0.00 0.00 0.02 0.05 0.08 0.08 0.15 0.35 0.75 0.92 1.02 1.13 1.21 0.97 0.92 1.02 1.13 0.91 0.74 0.69 0.60
0.00 0.00 0.00 0.00 0.00 0.00 0.00 0.00 0.00 0.00 0.00 0.00 0.00 0.02 0.08 0.08 0.09 0.18 0.23 0.39 0.48 0.63 0.78 0.92 1.11 1.18 1.32 1.44 1.25 1.01 0.71 0.47
0.01 0.02 0.03 0.04 0.04 0.02 0.01 0.01 0.00 0.00 0.00 0.00 0.01 0.01 0.04 0.09 0.13 0.13 0.26 0.33 0.27 0.24 0.20 0.16 0.16 0.26 0.24 0.24 0.40 0.38 0.30 0.24
0.00 0.01 0.01 0.02 0.04 0.05 0.04 0.03 0.02 0.01 0.00 0.00 0.03 0.06 0.09 0.16 0.36 0.25 0.28 0.43 0.39 0.46 0.55 0.40 0.25 0.16 0.12 0.08 0.07 0.07 0.06 0.08
0.07 0.05 0.03 0.01 0.00 0.01 0.02 0.03 0.04 0.04 0.03 0.03 0.09 0.22 0.28 0.30 0.42 0.35 0.27 0.33 0.33 0.33 0.49 0.75 0.81 0.45 0.30 0.22 0.16 0.11 0.12 0.13
0.04 0.05 0.06 0.04 0.03 0.02 0.02 0.01 0.02 0.01 0.02 0.06 0.09 0.08 0.09 0.26 0.61 0.57 0.42 0.33 0.36 0.52 0.59 0.64 0.85 0.99 0.47 0.31 0.22 0.15 0.19 0.16

GFSFLT2_prec_precacc24_132.txt.gz
Total_Precipitation_Accumulation
0.00 0.00 0.00 0.00 0.00 0.00 0.00 0.00 0.00 0.00 0.00 0.00 0.00 0.00 0.00 0.00 0.00 0.00 0.00 0.00 0.01 0.00 0.00 0.00 0.00 0.00 0.00 0.00 0.00 0.00 0.04 0.16
0.00 0.00 0.00 0.00 0.00 0.00 0.00 0.00 0.00 0.00 0.00 0.00 0.00 0.00 0.00 0.00 0.00 0.00 0.00 0.02 0.05 0.04 0.02 0.00 0.00 0.00 0.00 0.00 0.00 0.00 0.01 0.07
0.00 0.00 0.00 0.00 0.00 0.00 0.00 0.00 0.00 0.00 0.00 0.00 0.00 0.00 0.00 0.00 0.00 0.00 0.01 0.05 0.06 0.04 0.05 0.04 0.00 0.00 0.00 0.00 0.00 0.00 0.01 0.01
0.00 0.00 0.00 0.00 0.00 0.00 0.01 0.00 0.00 0.00 0.00 0.00 0.00 0.00 0.01 0.00 0.02 0.00 0.02 0.02 0.05 0.06 0.06 0.04 0.01 0.00 0.00 0.00 0.00 0.00 0.00 0.00
0.01 0.03 0.01 0.01 0.01 0.01 0.01 0.01 0.01 0.01 0.01 0.01 0.04 0.06 0.09 0.09 0.18 0.14 0.05 0.02 0.01 0.02 0.04 0.07 0.04 0.00 0.00 0.00 0.00 0.00 0.00 0.00
0.06 0.10 0.06 0.02 0.00 0.02 0.03 0.01 0.01 0.03 0.16 0.24 0.16 0.14 0.16 0.19 0.16 0.18 0.22 0.32 0.21 0.26 0.17 0.13 0.10 0.06 0.02 0.00 0.01 0.00 0.01 0.01
0.04 0.04 0.08 0.11 0.10 0.11 0.17 0.16 0.18 0.18 0.26 0.26 0.20 0.19 0.26 0.30 0.23 0.23 0.32 0.35 0.31 0.33 0.29 0.23 0.18 0.17 0.11 0.04 0.02 0.03 0.04 0.01
0.00 0.00 0.02 0.06 0.08 0.12 0.21 0.33 0.38 0.29 0.31 0.21 0.12 0.14 0.18 0.19 0.22 0.22 0.22 0.31 0.54 0.49 0.44 0.47 0.33 0.21 0.09 0.09 0.09 0.07 0.06 0.03
0.00 0.00 0.02 0.03 0.04 0.05 0.12 0.17 0.27 0.30 0.43 0.59 0.53 0.38 0.21 0.18 0.19 0.17 0.21 0.34 0.57 0.53 0.71 0.74 0.62 0.48 0.31 0.24 0.19 0.18 0.12 0.14
0.00 0.00 0.00 0.00 0.01 0.02 0.04 0.08 0.14 0.25 0.30 0.47 0.57 0.55 0.51 0.65 0.52 0.38 0.27 0.52 0.59 0.38 0.43 0.67 0.66 0.55 0.49 0.63 0.55 0.60 0.51 0.35
0.00 0.00 0.00 0.00 0.00 0.00 0.01 0.01 0.02 0.04 0.06 0.16 0.40 0.37 0.50 0.53 0.57 0.70 0.76 0.81 0.72 0.67 0.68 0.51 0.45 0.42 0.52 0.69 0.94 1.18 1.26 0.89
0.00 0.00 0.00 0.00 0.00 0.00 0.00 0.00 0.00 0.00 0.00 0.01 0.04 0.12 0.09 0.17 0.22 0.37 0.71 0.88 0.95 1.11 1.03 0.75 0.68 0.75 0.93 0.85 0.88 1.00 1.03 1.14
0.00 0.00 0.00 0.00 0.00 0.00 0.00 0.00 0.00 0.00 0.00 0.00 0.00 0.10 0.10 0.01 0.02 0.08 0.22 0.27 0.30 0.64 0.94 0.93 0.88 1.24 1.95 1.92 1.48 1.45 1.80 2.03
0.00 0.00 0.00 0.00 0.00 0.00 0.00 0.00 0.00 0.00 0.00 0.00 0.00 0.00 0.03 0.02 0.01 0.02 0.05 0.19 0.33 0.32 0.64 0.75 0.69 0.90 1.22 1.30 1.27 0.89 0.62 0.51
0.00 0.00 0.00 0.00 0.00 0.00 0.00 0.00 0.00 0.00 0.00 0.00 0.00 0.00 0.00 0.03 0.05 0.06 0.09 0.32 0.57 0.96 1.12 1.20 0.96 0.90 1.02 1.15 0.96 0.76 0.70 0.63
0.00 0.00 0.00 0.00 0.00 0.00 0.00 0.00 0.00 0.00 0.00 0.00 0.00 0.00 0.01 0.02 0.04 0.11 0.08 0.20 0.28 0.43 0.69 0.90 1.11 1.18 1.31 1.43 1.25 1.02 0.74 0.51
0.01 0.02 0.03 0.04 0.04 0.02 0.01 0.01 0.00 0.00 0.00 0.00 0.00 0.00 0.02 0.06 0.10 0.11 0.10 0.15 0.11 0.10 0.12 0.14 0.14 0.25 0.24 0.24 0.39 0.36 0.28 0.25
0.00 0.01 0.01 0.02 0.04 0.05 0.04 0.03 0.02 0.01 0.00 0.00 0.00 0.00 0.00 0.06 0.16 0.17 0.19 0.18 0.14 0.11 0.13 0.18 0.14 0.10 0.10 0.09 0.07 0.07 0.05 0.07
0.07 0.05 0.03 0.01 0.00 0.01 0.02 0.03 0.04 0.04 0.03 0.01 0.01 0.01 0.00 0.03 0.23 0.27 0.23 0.29 0.28 0.25 0.27 0.43 0.57 0.36 0.26 0.21 0.15 0.09 0.08 0.10
0.04 0.05 0.06 0.04 0.03 0.02 0.01 0.01 0.01 0.01 0.01 0.01 0.02 0.02 0.01 0.04 0.33 0.43 0.34 0.27 0.23 0.29 0.33 0.45 0.73 0.75 0.33 0.23 0.17 0.14 0.15 0.14

GFSFLT2_prec_precacc24_135.txt.gz
Total_Precipitation_Accumulation
0.00 0.00 0.00 0.00 0.00 0.00 0.00 0.00 0.00 0.00 0.00 0.00 0.00 0.00 0.00 0.00 0.00 0.00 0.00 0.00 0.00 0.00 0.00 0.00 0.00 0.00 0.00 0.00 0.00 0.00 0.03 0.02
0.00 0.00 0.00 0.00 0.00 0.00 0.00 0.00 0.00 0.00 0.00 0.00 0.00 0.00 0.00 0.00 0.00 0.00 0.00 0.02 0.05 0.04 0.03 0.00 0.00 0.00 0.00 0.00 0.00 0.00 0.01 0.02
0.00 0.00 0.00 0.00 0.00 0.00 0.00 0.00 0.00 0.00 0.00 0.00 0.00 0.00 0.00 0.00 0.00 0.00 0.02 0.05 0.06 0.04 0.05 0.04 0.00 0.00 0.00 0.00 0.00 0.00 0.01 0.00
0.00 0.00 0.00 0.00 0.00 0.00 0.02 0.01 0.00 0.00 0.00 0.00 0.00 0.00 0.01 0.00 0.02 0.01 0.04 0.04 0.06 0.06 0.06 0.04 0.02 0.00 0.00 0.00 0.00 0.00 0.00 0.00
0.01 0.03 0.01 0.00 0.00 0.00 0.01 0.04 0.08 0.09 0.10 0.06 0.07 0.10 0.12 0.09 0.19 0.16 0.05 0.02 0.04 0.10 0.06 0.08 0.07 0.03 0.00 0.00 0.00 0.00 0.00 0.00
0.03 0.05 0.05 0.02 0.00 0.01 0.01 0.01 0.02 0.08 0.22 0.35 0.30 0.30 0.22 0.24 0.18 0.28 0.31 0.40 0.33 0.43 0.24 0.17 0.13 0.08 0.04 0.00 0.01 0.01 0.01 0.01
0.04 0.01 0.03 0.05 0.06 0.06 0.13 0.11 0.13 0.17 0.25 0.32 0.30 0.32 0.32 0.37 0.31 0.31 0.48 0.49 0.45 0.51 0.47 0.46 0.43 0.35 0.25 0.09 0.05 0.10 0.16 0.15
0.00 0.00 0.02 0.05 0.06 0.08 0.15 0.23 0.25 0.23 0.17 0.17 0.12 0.15 0.18 0.19 0.24 0.25 0.27 0.34 0.56 0.52 0.50 0.62 0.55 0.58 0.49 0.45 0.45 0.53 0.46 0.41
0.00 0.00 0.02 0.03 0.03 0.04 0.09 0.15 0.17 0.21 0.30 0.44 0.44 0.31 0.20 0.18 0.19 0.17 0.21 0.34 0.57 0.53 0.73 0.80 0.71 0.61 0.51 0.53 0.53 0.57 0.79 0.96
0.00 0.00 0.00 0.00 0.01 0.02 0.04 0.05 0.10 0.19 0.26 0.36 0.43 0.48 0.47 0.65 0.53 0.38 0.27 0.52 0.59 0.38 0.43 0.67 0.67 0.56 0.52 0.71 0.88 1.02 1.06 1.26
0.00 0.00 0.00 0.00 0.00 0.00 0.01 0.01 0.02 0.02 0.04 0.13 0.23 0.34 0.46 0.48 0.56 0.70 0.76 0.81 0.72 0.67 0.68 0.51 0.45 0.42 0.52 0.69 0.95 1.21 1.37 1.37
0.00 0.00 0.00 0.00 0.00 0.00 0.00 0.00 0.00 0.00 0.00 0.01 0.02 0.04 0.06 0.12 0.19 0.36 0.70 0.87 0.95 1.10 1.03 0.75 0.68 0.75 0.93 0.85 0.87 0.99 1.02 1.14
0.00 0.00 0.00 0.00 0.00 0.00 0.00 0.00 0.00 0.00 0.00 0.00 0.00 0.00 0.01 0.01 0.01 0.06 0.21 0.25 0.30 0.64 0.92 0.92 0.85 1.23 1.95 1.92 1.48 1.45 1.80 2.02
0.00 0.00 0.00 0.00 0.00 0.00 0.00 0.00 0.00 0.00 0.00 0.00 0.00 0.00 0.00 0.00 0.00 0.01 0.02 0.08 0.23 0.28 0.50 0.66 0.64 0.85 1.18 1.30 1.27 0.89 0.62 0.51
0.00 0.00 0.00 0.00 0.00 0.00 0.00 0.00 0.00 0.00 0.00 0.00 0.00 0.00 0.00 0.00 0.00 0.01 0.02 0.05 0.07 0.18 0.25 0.45 0.51 0.68 0.91 1.10 0.96 0.76 0.70 0.63
0.00 0.00 0.00 0.00 0.00 0.00 0.00 0.00 0.00 0.00 0.00 0.00 0.00 0.00 0.00 0.00 0.00 0.00 0.02 0.04 0.06 0.07 0.13 0.24 0.42 0.88 1.12 1.37 1.24 1.03 0.75 0.51
0.01 0.02 0.03 0.04 0.04 0.02 0.01 0.01 0.00 0.00 0.00 0.00 0.00 0.00 0.00 0.00 0.00 0.00 0.01 0.03 0.04 0.05 0.06 0.08 0.07 0.06 0.07 0.19 0.37 0.36 0.28 0.26
0.00 0.01 0.01 0.02 0.04 0.05 0.04 0.03 0.02 0.01 0.00 0.00 0.00 0.00 0.00 0.00 0.00 0.00 0.00 0.01 0.04 0.06 0.06 0.07 0.07 0.06 0.05 0.06 0.07 0.08 0.05 0.08
0.07 0.05 0.03 0.01 0.00 0.01 0.02 0.03 0.04 0.04 0.03 0.01 0.01 0.01 0.00 0.00 0.00 0.00 0.00 0.00 0.02 0.10 0.13 0.14 0.16 0.15 0.12 0.10 0.11 0.09 0.08 0.10
0.04 0.05 0.06 0.04 0.03 0.02 0.01 0.01 0.00 0.01 0.01 0.01 0.02 0.02 0.01 0.01 0.01 0.01 0.00 0.00 0.01 0.05 0.09 0.17 0.26 0.26 0.16 0.17 0.14 0.13 0.15 0.14

GFSFLT2_prec_precacc24_141.txt.gz
Total_Precipitation_Accumulation
0.00 0.00 0.00 0.00 0.00 0.00 0.00 0.00 0.00 0.00 0.00 0.00 0.00 0.00 0.00 0.00 0.00 0.00 0.00 0.00 0.00 0.00 0.00 0.00 0.00 0.00 0.00 0.00 0.00 0.00 0.00 0.00
0.00 0.00 0.00 0.00 0.00 0.00 0.00 0.00 0.00 0.00 0.00 0.00 0.00 0.00 0.00 0.00 0.00 0.00 0.00 0.02 0.05 0.04 0.04 0.03 0.01 0.00 0.01 0.00 0.00 0.00 0.00 0.00
0.00 0.00 0.00 0.00 0.00 0.00 0.00 0.01 0.03 0.00 0.00 0.00 0.00 0.00 0.00 0.00 0.00 0.00 0.02 0.05 0.06 0.04 0.07 0.15 0.16 0.11 0.02 0.04 0.02 0.00 0.00 0.00
0.00 0.00 0.00 0.00 0.00 0.00 0.02 0.02 0.01 0.02 0.04 0.01 0.00 0.00 0.01 0.00 0.02 0.01 0.04 0.04 0.07 0.07 0.07 0.07 0.12 0.03 0.02 0.08 0.10 0.06 0.02 0.01
0.00 0.00 0.00 0.00 0.00 0.00 0.01 0.04 0.08 0.10 0.11 0.10 0.10 0.12 0.13 0.11 0.21 0.16 0.06 0.02 0.07 0.16 0.13 0.16 0.16 0.16 0.24 0.18 0.04 0.01 0.00 0.00
0.00 0.00 0.00 0.00 0.00 0.01 0.01 0.01 0.02 0.08 0.23 0.36 0.32 0.31 0.24 0.28 0.27 0.34 0.35 0.43 0.35 0.46 0.28 0.28 0.27 0.30 0.33 0.25 0.12 0.02 0.04 0.02
0.00 0.00 0.00 0.02 0.03 0.03 0.07 0.09 0.13 0.17 0.25 0.32 0.31 0.32 0.32 0.39 0.32 0.31 0.50 0.49 0.46 0.51 0.47 0.47 0.48 0.39 0.34 0.31 0.20 0.14 0.24 0.26
0.00 0.00 0.02 0.05 0.05 0.06 0.09 0.11 0.11 0.13 0.11 0.11 0.10 0.15 0.18 0.20 0.24 0.25 0.27 0.34 0.56 0.52 0.50 0.62 0.55 0.59 0.54 0.55 0.58 0.67 0.60 0.58
0.00 0.00 0.02 0.03 0.03 0.04 0.05 0.05 0.05 0.08 0.13 0.16 0.14 0.18 0.16 0.15 0.19 0.16 0.18 0.31 0.54 0.52 0.73 0.80 0.71 0.61 0.51 0.57 0.59 0.67 0.93 1.16
0.00 0.00 0.00 0.00 0.01 0.02 0.04 0.05 0.04 0.06 0.06 0.09 0.11 0.16 0.16 0.16 0.16 0.18 0.13 0.29 0.39 0.29 0.39 0.66 0.67 0.56 0.52 0.71 0.89 1.04 1.10 1.32
0.00 0.00 0.00 0.00 0.00 0.00 0.01 0.01 0.01 0.02 0.01 0.01 0.01 0.03 0.07 0.10 0.14 0.17 0.26 0.39 0.40 0.46 0.53 0.43 0.43 0.40 0.51 0.69 0.95 1.21 1.37 1.37
0.00 0.00 0.00 0.00 0.00 0.00 0.00 0.00 0.00 0.00 0.00 0.01 0.01 0.00 0.00 0.01 0.01 0.05 0.11 0.21 0.37 0.58 0.74 0.56 0.52 0.61 0.84 0.81 0.82 0.95 1.00 1.13
0.00 0.00 0.00 0.00 0.00 0.00 0.00 0.00 0.00 0.00 0.00 0.00 0.00 0.00 0.00 0.00 0.00 0.00 0.00 0.02 0.09 0.25 0.32 0.39 0.39 0.80 1.64 1.65 1.27 1.30 1.64 1.91
0.00 0.00 0.00 0.00 0.00 0.00 0.00 0.00 0.00 0.00 0.00 0.00 0.00 0.00 0.00 0.00 0.00 0.00 0.00 0.00 0.00 0.01 0.02 0.07 0.18 0.34 0.50 0.77 0.92 0.68 0.42 0.27
0.00 0.00 0.00 0.00 0.00 0.00 0.00 0.00 0.00 0.00 0.00 0.00 0.00 0.00 0.00 0.00 0.00 0.00 0.00 0.00 0.00 0.00 0.00 0.01 0.03 0.07 0.21 0.29 0.21 0.11 0.07 0.10
0.00 0.00 0.00 0.00 0.00 0.00 0.00 0.00 0.00 0.00 0.00 0.00 0.00 0.00 0.00 0.00 0.00 0.00 0.00 0.00 0.01 0.01 0.00 0.01 0.02 0.03 0.02 0.09 0.11 0.09 0.08 0.05
0.01 0.02 0.03 0.04 0.04 0.02 0.01 0.01 0.00 0.00 0.00 0.00 0.00 0.00 0.00 0.00 0.00 0.00 0.00 0.01 0.01 0.01 0.01 0.01 0.01 0.02 0.03 0.03 0.06 0.08 0.08 0.10
0.00 0.01 0.01 0.02 0.04 0.05 0.04 0.03 0.02 0.01 0.00 0.00 0.00 0.00 0.00 0.00 0.00 0.00 0.00 0.00 0.01 0.01 0.01 0.01 0.02 0.02 0.03 0.03 0.04 0.05 0.04 0.08
0.07 0.05 0.03 0.01 0.00 0.01 0.02 0.03 0.04 0.04 0.03 0.01 0.01 0.01 0.00 0.00 0.00 0.00 0.00 0.00 0.00 0.01 0.00 0.01 0.01 0.03 0.02 0.02 0.04 0.03 0.04 0.05
0.04 0.05 0.06 0.04 0.03 0.02 0.01 0.01 0.00 0.01 0.01 0.01 0.02 0.02 0.01 0.01 0.01 0.01 0.00 0.00 0.01 0.00 0.01 0.01 0.02 0.02 0.03 0.03 0.03 0.04 0.05 0.06

GFSFLT2_prec_precacc24_144.txt.gz
Total_Precipitation_Accumulation
0.00 0.00 0.00 0.00 0.00 0.00 0.00 0.00 0.00 0.00 0.00 0.00 0.00 0.00 0.00 0.00 0.00 0.00 0.00 0.00 0.00 0.00 0.01 0.03 0.04 0.04 0.01 0.00 0.00 0.00 0.00 0.00
0.00 0.00 0.00 0.00 0.00 0.00 0.00 0.00 0.01 0.00 0.00 0.00 0.00 0.00 0.00 0.00 0.00 0.00 0.00 0.02 0.05 0.04 0.05 0.06 0.08 0.12 0.11 0.04 0.03 0.00 0.00 0.00
0.00 0.00 0.00 0.00 0.00 0.00 0.00 0.01 0.03 0.00 0.00 0.00 0.00 0.00 0.00 0.00 0.00 0.01 0.02 0.05 0.06 0.04 0.07 0.15 0.18 0.14 0.06 0.11 0.15 0.07 0.07 0.01
0.00 0.00 0.00 0.00 0.00 0.00 0.02 0.02 0.01 0.02 0.04 0.01 0.01 0.01 0.01 0.00 0.02 0.01 0.04 0.04 0.07 0.07 0.07 0.07 0.12 0.05 0.03 0.09 0.12 0.07 0.04 0.02
0.00 0.00 0.00 0.00 0.00 0.00 0.01 0.04 0.08 0.10 0.11 0.10 0.10 0.12 0.13 0.11 0.21 0.16 0.06 0.02 0.07 0.16 0.15 0.17 0.19 0.18 0.25 0.21 0.05 0.01 0.00 0.00
0.00 0.00 0.00 0.00 0.00 0.01 0.01 0.01 0.02 0.08 0.23 0.36 0.31 0.31 0.24 0.27 0.27 0.34 0.36 0.43 0.35 0.46 0.29 0.28 0.28 0.30 0.33 0.25 0.12 0.02 0.04 0.02
0.00 0.00 0.00 0.02 0.03 0.03 0.07 0.09 0.13 0.17 0.25 0.32 0.29 0.30 0.27 0.34 0.31 0.30 0.48 0.49 0.46 0.51 0.47 0.47 0.48 0.39 0.34 0.31 0.20 0.14 0.24 0.27
0.00 0.00 0.01 0.05 0.05 0.06 0.09 0.11 0.10 0.12 0.11 0.11 0.10 0.13 0.16 0.17 0.23 0.24 0.24 0.32 0.49 0.51 0.50 0.62 0.55 0.59 0.54 0.55 0.58 0.67 0.60 0.58
0.00 0.00 0.01 0.02 0.02 0.03 0.04 0.05 0.05 0.05 0.08 0.11 0.10 0.14 0.13 0.13 0.17 0.16 0.18 0.26 0.37 0.45 0.67 0.78 0.70 0.60 0.51 0.57 0.59 0.67 0.93 1.16
0.00 0.00 0.00 0.00 0.00 0.01 0.02 0.04 0.04 0.05 0.05 0.05 0.05 0.06 0.09 0.11 0.13 0.17 0.12 0.14 0.16 0.19 0.30 0.53 0.60 0.52 0.50 0.70 0.88 1.03 1.09 1.31
0.00 0.00 0.00 0.00 0.00 0.00 0.00 0.01 0.01 0.01 0.01 0.01 0.01 0.01 0.01 0.03 0.04 0.07 0.12 0.12 0.11 0.13 0.29 0.26 0.33 0.32 0.40 0.61 0.91 1.15 1.31 1.33
0.00 0.00 0.00 0.00 0.00 0.00 0.00 0.00 0.00 0.00 0.00 0.01 0.01 0.00 0.00 0.00 0.00 0.00 0.01 0.05 0.11 0.17 0.33 0.29 0.34 0.44 0.63 0.65 0.72 0.84 0.87 1.01
0.00 0.00 0.00 0.00 0.00 0.00 0.00 0.00 0.00 0.00 0.00 0.00 0.00 0.00 0.00 0.00 0.00 0.00 0.00 0.00 0.00 0.02 0.04 0.09 0.20 0.53 1.17 1.35 1.14 1.20 1.52 1.77
0.00 0.00 0.00 0.00 0.00 0.00 0.00 0.00 0.00 0.00 0.00 0.00 0.00 0.00 0.00 0.00 0.00 0.00 0.00 0.00 0.00 0.00 0.00 0.00 0.02 0.07 0.20 0.49 0.76 0.52 0.30 0.19
0.00 0.00 0.00 0.00 0.00 0.00 0.00 0.00 0.00 0.00 0.00 0.00 0.00 0.00 0.00 0.00 0.00 0.00 0.00 0.00 0.00 0.00 0.00 0.00 0.01 0.01 0.05 0.10 0.12 0.05 0.03 0.05
0.00 0.00 0.00 0.00 0.00 0.00 0.00 0.00 0.00 0.00 0.00 0.00 0.00 0.00 0.00 0.00 0.00 0.00 0.00 0.00 0.00 0.01 0.00 0.01 0.01 0.01 0.02 0.05 0.06 0.08 0.08 0.05
0.00 0.00 0.00 0.04 0.04 0.02 0.01 0.01 0.00 0.00 0.00 0.00 0.00 0.00 0.00 0.00 0.00 0.00 0.00 0.00 0.00 0.00 0.01 0.01 0.01 0.02 0.02 0.03 0.06 0.07 0.07 0.11
0.00 0.00 0.00 0.01 0.03 0.05 0.04 0.03 0.02 0.01 0.00 0.00 0.00 0.00 0.00 0.00 0.00 0.00 0.00 0.00 0.00 0.00 0.00 0.01 0.01 0.01 0.02 0.03 0.04 0.05 0.04 0.08
0.02 0.02 0.02 0.01 0.00 0.01 0.02 0.03 0.04 0.04 0.03 0.01 0.01 0.01 0.00 0.00 0.00 0.00 0.00 0.00 0.00 0.00 0.00 0.00 0.01 0.01 0.01 0.01 0.02 0.03 0.03 0.04
0.01 0.01 0.02 0.02 0.02 0.02 0.01 0.01 0.00 0.01 0.01 0.01 0.02 0.02 0.01 0.01 0.01 0.01 0.00 0.00 0.00 0.00 0.00 0.01 0.01 0.01 0.01 0.01 0.02 0.02 0.04 0.06